Overview Statistics Trail Chart Weather Telemetry Raw packets
 

This is the latest recevied weather packets stored in our database for station/object W5MAI. If no packets are shown the sender has not sent any weather packets the latest 10 day(s).

<< 20 21 22 23 24 25 26 >>
Time Temp. Humidity Pressure Rain* Wind** Luminosity Snow
1788310406 33.33° C 51% 1014.5 hPa 0 mm - 5 W/m² -
1788309825 33.89° C 48% 1014.5 hPa 0 mm - 11 W/m² -
1788309234 33.89° C 46% 1014.6 hPa 0 mm - 18 W/m² -
1788308627 34.44° C 45% 1014.7 hPa 0 mm - 40 W/m² -
1788308018 34.44° C 45% 1014.7 hPa 0 mm - 70 W/m² -
1788307425 34.44° C 45% 1014.7 hPa 0 mm - 105 W/m² -
1788306834 35° C 44% 1014.7 hPa 0 mm - 144 W/m² -
1788306243 35° C 42% 1014.7 hPa 0 mm - 190 W/m² -
1788305660 35.56° C 42% 1014.5 hPa 0 mm - 220 W/m² -
1788305047 35.56° C 42% 1014.7 hPa 0 mm - 271 W/m² -
1788304421 35.56° C 43% 1014.7 hPa 0 mm - 302 W/m² -
1788303839 35.56° C 44% 1014.7 hPa 0 mm - 332 W/m² -
1788303247 35.56° C 41% 1014.8 hPa 0 mm - 371 W/m² -
1788302652 35.56° C 42% 1014.7 hPa 0 mm - 403 W/m² -
1788302044 36.11° C 42% 1014.8 hPa 0 mm - 448 W/m² -
1788301433 35.56° C 43% 1014.7 hPa 0 mm - 497 W/m² -
1788300822 36.11° C 42% 1014.8 hPa 0 mm - 527 W/m² -
1788300227 36.11° C 42% 1014.9 hPa 0 mm - 578 W/m² -
1788299636 36.11° C 42% 1014.9 hPa 0 mm - 621 W/m² -
1788299027 35.56° C 43% 1014.9 hPa 0 mm - 650 W/m² -
1788298407 35° C 43% 1015.1 hPa 0 mm - 731 W/m² -
1788297815 35° C 43% 1015.1 hPa 0 mm - 183 W/m² -
1788297223 35.56° C 45% 1015.2 hPa 0 mm - 765 W/m² -
1788296609 34.44° C 45% 1015.3 hPa 0 mm - 754 W/m² -
1788296018 35° C 45% 1015.5 hPa 0 mm - 144 W/m² -

* Rain latest hour (hover to see other rain measurements)
** Current wind speed in m/s (hover to see current wind gust speed)